Weather History for Paris, IL

Change the Weather History Date:

Sunday, October 28, 2012

  Actual Average (KHUF) Record (KHUF)
Temperature  
Mean Temperature 42 °F 50 °F  
Max Temperature 50 °F 61 °F 78 °F (1971)
Min Temperature 35 °F 40 °F 19 °F (1976)
Degree Days  
Heating Degree Days 23 15  
Month to date heating degree days 303  
Since 1 July heating degree days 381  
Cooling Degree Days 0 0  
Month to date cooling degree days 12  
Year to date cooling degree days 990  
Moisture  
Dew Point 32 °F    
Average Humidity 71    
Maximum Humidity 89    
Minimum Humidity 48    
Precipitation  
Precipitation 0.01 in 0.11 in 0.61 in (1980)
Month to date precipitation 3.27  
Year to date precipitation 37.97  
Sea Level Pressure  
Sea Level Pressure 30.20 in    
Wind  
Wind Speed 7 mph (North)    
Max Wind Speed 17 mph    
Max Gust Speed 23 mph    
Visibility 8 miles    
Events      
T = Trace of Precipitation, MM = Missing Value Source: NWS Daily Summary

Daily Weather History Graph

Daily Weather History Graph

Search for Another Location

Airport:

Trip Planner

Search our weather history database for the weather conditions in past years. The results will help you decide how hot, cold, wet, or windy it might be!

Date:

Astronomy

Oct. 28, 2012 Rise Set
Actual Time 7:15 AM CDT 5:52 PM CDT
Civil Twilight 6:47 AM CDT 6:20 PM CDT
Nautical Twilight 6:15 AM CDT 6:52 PM CDT
Astronomical Twilight 5:44 AM CDT 7:23 PM CDT
Moon 5:10 PM CDT (10/28) 6:08 AM CDT (10/28)
Length of Visible Light 11h 33m
Length of Day
10h 37m
Waxing Gibbous, 99% of the Moon is Illuminated
Oct 28
Waxing Gibbous
Oct 29
Full
Nov 6
Last Quarter
Nov 13
New
Nov 20
First Quarter

Hourly Weather History & Observations

Time (CDT) Temp. Windchill Dew Point Humidity Pressure Visibility Wind Dir Wind Speed Gust Speed Precip Events Conditions
12:15 AM 38.3 °F 33.9 °F 32.0 °F 78% 30.20 in 7.0 mi NNW 5.8 mph - N/A   Clear
12:35 AM 37.0 °F 34.5 °F 32.0 °F 82% 30.20 in 10.0 mi North 3.5 mph - N/A   Clear
12:55 AM 36.7 °F 34.1 °F 32.0 °F 83% 30.20 in 7.0 mi NNW 3.5 mph - N/A   Clear
1:15 AM 35.1 °F 31.0 °F 31.8 °F 88% 30.20 in 10.0 mi NNW 4.6 mph - N/A   Clear
1:35 AM 35.6 °F - 31.6 °F 85% 30.20 in 10.0 mi Calm Calm - N/A   Clear
1:55 AM 35.6 °F 31.7 °F 31.6 °F 85% 30.21 in 10.0 mi NNW 4.6 mph - N/A   Clear
2:15 AM 35.6 °F 31.7 °F 31.5 °F 85% 30.20 in 10.0 mi North 4.6 mph - N/A   Clear
2:35 AM 35.2 °F 32.4 °F 31.1 °F 85% 30.20 in 10.0 mi North 3.5 mph - N/A   Clear
2:55 AM 35.1 °F 31.0 °F 31.1 °F 85% 30.20 in 10.0 mi North 4.6 mph - N/A   Clear
3:15 AM 35.1 °F 31.0 °F 31.1 °F 85% 30.20 in 10.0 mi North 4.6 mph - N/A   Clear
3:35 AM 35.2 °F 30.3 °F 31.1 °F 85% 30.20 in 10.0 mi NNW 5.8 mph - N/A   Clear
3:55 AM 35.1 °F 31.0 °F 31.5 °F 87% 30.20 in 7.0 mi NNW 4.6 mph - N/A   Clear
4:15 AM 35.2 °F 30.3 °F 31.6 °F 87% 30.20 in 10.0 mi NNW 5.8 mph - N/A   Clear
4:35 AM 35.2 °F 30.3 °F 31.6 °F 87% 30.20 in 7.0 mi North 5.8 mph - N/A   Clear
4:55 AM 35.2 °F 30.3 °F 31.6 °F 87% 30.20 in 10.0 mi North 5.8 mph - N/A   Clear
5:15 AM 35.1 °F 31.0 °F 31.8 °F 88% 30.20 in 7.0 mi North 4.6 mph - N/A   Clear
5:35 AM 35.1 °F 30.1 °F 31.8 °F 88% 30.20 in 7.0 mi North 5.8 mph - N/A   Clear
5:55 AM 35.1 °F 30.1 °F 31.8 °F 88% 30.20 in 10.0 mi North 5.8 mph - N/A   Clear
6:15 AM 35.1 °F 30.1 °F 32.0 °F 89% 30.20 in 5.0 mi North 5.8 mph - N/A   Clear
6:35 AM 35.2 °F 30.3 °F 32.0 °F 88% 30.20 in 7.0 mi North 5.8 mph - N/A   Clear
6:55 AM 35.6 °F 30.7 °F 32.0 °F 87% 30.20 in 10.0 mi North 5.8 mph - N/A   Clear
7:15 AM 35.6 °F 31.7 °F 32.0 °F 87% 30.20 in 10.0 mi North 4.6 mph - N/A   Clear
7:35 AM 35.6 °F 31.7 °F 32.0 °F 87% 30.21 in 7.0 mi North 4.6 mph - N/A   Clear
7:55 AM 36.0 °F 32.1 °F 32.4 °F 87% 30.21 in 7.0 mi NNW 4.6 mph - N/A   Clear
8:15 AM 36.1 °F 32.3 °F 32.7 °F 87% 30.22 in 7.0 mi North 4.6 mph - N/A   Clear
8:35 AM 37.0 °F 33.3 °F 33.1 °F 86% 30.22 in 10.0 mi North 4.6 mph - N/A   Clear
8:55 AM 38.7 °F 34.3 °F 34.0 °F 83% 30.22 in 10.0 mi North 5.8 mph - N/A   Clear
9:15 AM 39.7 °F 34.3 °F 33.8 °F 79% 30.22 in 7.0 mi North 8.1 mph - N/A   Clear
9:35 AM 40.3 °F 34.4 °F 34.0 °F 78% 30.22 in 7.0 mi NNE 9.2 mph - N/A   Clear
9:55 AM 41.7 °F 35.6 °F 34.2 °F 75% 30.22 in 10.0 mi NNE 10.4 mph - 0.01 in   Clear
10:15 AM 42.8 °F 36.2 °F 34.7 °F 73% 30.21 in 7.0 mi NNE 12.7 mph 18.4 mph N/A   Clear
10:35 AM 44.4 °F 40.0 °F 34.7 °F 69% 30.22 in 7.0 mi NE 8.1 mph - N/A   Clear
10:55 AM 46.2 °F 41.2 °F 35.4 °F 66% 30.22 in 7.0 mi NE 10.4 mph 17.3 mph N/A   Clear
11:15 AM 46.9 °F - 34.7 °F 62% 30.22 in 7.0 mi NE 11.5 mph 18.4 mph N/A   Clear
11:35 AM 47.5 °F - 33.3 °F 58% 30.22 in 7.0 mi NE 16.1 mph 21.9 mph N/A   Scattered Clouds
11:55 AM 48.0 °F - 32.5 °F 55% 30.21 in 7.0 mi NNE 16.1 mph 21.9 mph N/A   Clear
12:15 PM 49.1 °F - 33.3 °F 54% 30.20 in 7.0 mi North 12.7 mph 20.7 mph N/A   Clear
12:35 PM 48.9 °F - 32.9 °F 54% 30.20 in 7.0 mi North 12.7 mph 19.6 mph N/A   Scattered Clouds
12:55 PM 48.6 °F - 33.1 °F 55% 30.19 in 5.0 mi NE 11.5 mph 19.6 mph N/A   Haze
1:15 PM 48.4 °F - 32.2 °F 54% 30.19 in 7.0 mi North 13.8 mph 20.7 mph N/A   Mostly Cloudy
1:35 PM 49.3 °F - 32.2 °F 52% 30.18 in 5.0 mi North 10.4 mph 20.7 mph N/A   Haze
1:55 PM 47.8 °F - 32.0 °F 54% 30.18 in 7.0 mi North 10.4 mph 19.6 mph N/A   Mostly Cloudy
2:15 PM 48.6 °F - 32.0 °F 53% 30.18 in 7.0 mi North 12.7 mph 19.6 mph N/A   Overcast
2:35 PM 48.2 °F - 31.6 °F 53% 30.17 in 7.0 mi NNE 12.7 mph 16.1 mph N/A   Mostly Cloudy
2:55 PM 49.5 °F - 32.0 °F 51% 30.17 in 7.0 mi North 16.1 mph 23.0 mph N/A   Mostly Cloudy
3:15 PM 48.7 °F - 30.9 °F 50% 30.17 in 7.0 mi North 17.3 mph 21.9 mph N/A   Scattered Clouds
3:35 PM 48.4 °F - 29.8 °F 49% 30.17 in 7.0 mi North 11.5 mph 17.3 mph N/A   Scattered Clouds
3:55 PM 48.7 °F - 30.0 °F 48% 30.17 in 7.0 mi NNW 11.5 mph 18.4 mph N/A   Clear
4:15 PM 49.6 °F - 30.9 °F 49% 30.17 in 7.0 mi NNW 11.5 mph 18.4 mph N/A   Scattered Clouds
4:35 PM 48.2 °F - 30.6 °F 51% 30.17 in 7.0 mi North 9.2 mph - N/A   Scattered Clouds
4:55 PM 48.4 °F - 30.0 °F 49% 30.17 in 7.0 mi North 10.4 mph 19.6 mph N/A   Scattered Clouds
5:15 PM 47.5 °F - 30.2 °F 51% 30.17 in 7.0 mi North 9.2 mph - N/A   Scattered Clouds
5:35 PM 46.4 °F 41.9 °F 30.0 °F 53% 30.18 in 7.0 mi North 9.2 mph - N/A   Clear
5:55 PM 44.8 °F 40.4 °F 30.2 °F 57% 30.18 in 10.0 mi North 8.1 mph - N/A   Clear
6:15 PM 43.7 °F 39.7 °F 30.2 °F 59% 30.19 in 7.0 mi North 6.9 mph - N/A   Clear
6:35 PM 43.2 °F 38.4 °F 30.2 °F 60% 30.19 in 10.0 mi North 8.1 mph - N/A   Clear
6:55 PM 42.4 °F 38.8 °F 30.4 °F 62% 30.20 in 10.0 mi North 5.8 mph - N/A   Clear
7:15 PM 41.4 °F 36.8 °F 31.1 °F 67% 30.20 in 7.0 mi North 6.9 mph - N/A   Clear
7:35 PM 41.2 °F 36.0 °F 30.9 °F 67% 30.20 in 7.0 mi NNW 8.1 mph - N/A   Clear
7:55 PM 41.0 °F 35.8 °F 32.0 °F 70% 30.20 in 10.0 mi NNW 8.1 mph - N/A   Scattered Clouds
8:15 PM 40.3 °F 34.9 °F 31.1 °F 70% 30.20 in 10.0 mi North 8.1 mph - N/A   Clear
8:35 PM 40.5 °F 35.8 °F 31.3 °F 70% 30.20 in 7.0 mi North 6.9 mph - N/A   Clear
8:55 PM 39.9 °F 35.8 °F 31.6 °F 72% 30.20 in 10.0 mi North 5.8 mph - N/A   Clear
9:15 PM 39.7 °F 34.9 °F 32.0 °F 74% 30.20 in 7.0 mi North 6.9 mph - N/A   Mostly Cloudy
9:35 PM 40.5 °F 35.8 °F 32.2 °F 72% 30.21 in 10.0 mi North 6.9 mph - N/A   Overcast
9:55 PM 41.2 °F 37.3 °F 32.5 °F 71% 30.20 in 7.0 mi NNW 5.8 mph - N/A   Overcast
10:15 PM 41.2 °F 38.2 °F 33.1 °F 73% 30.20 in 10.0 mi North 4.6 mph - N/A   Overcast
10:35 PM 41.4 °F 36.8 °F 33.1 °F 72% 30.20 in 10.0 mi NNW 6.9 mph - N/A   Overcast
10:55 PM 40.1 °F 35.3 °F 32.9 °F 75% 30.20 in 10.0 mi NNW 6.9 mph - N/A   Scattered Clouds
11:15 PM 39.2 °F 34.2 °F 32.4 °F 76% 30.20 in 10.0 mi NNW 6.9 mph - N/A   Clear
11:35 PM 38.3 °F 32.5 °F 32.2 °F 79% 30.20 in 7.0 mi NNW 8.1 mph - N/A   Clear
11:55 PM 38.3 °F 32.5 °F 33.1 °F 81% 30.20 in 10.0 mi NNW 8.1 mph - N/A   Mostly Cloudy